START_TIME,STEP,MOV.,A46,t_acc.,A13,t_acc.,M47,t_acc.,A17,t_acc.,A28,t_acc.,M38,t_acc.
1980-11-14 12:00:14.070 ,7,0,,0,0.,4.8,0.,4.8,,0,0.,4.8,0.,4.8
1980-11-14 12:00:18.870 ,7,0,,0,0.,4.8,0.,4.8,,0,0.,4.8,0.,4.8
1980-11-14 12:00:23.670 ,7,0,,0,0.,4.8,0.,4.8,,0,0.,4.8,0.,4.8
1980-11-14 12:00:28.470 ,7,0,,0,0.,4.8,0.,4.8,,0,0.,4.8,0.,4.8
1980-11-14 12:00:33.270 ,7,0,,0,0.,4.8,0.,4.8,,0,0.,4.8,0.,4.8
1980-11-14 12:00:38.070 ,7,0,,0,0.,4.8,0.,4.8,,0,0.,4.8,0.,4.8
1980-11-14 12:00:42.870 ,7,0,,0,0.,4.8,0.,4.8,,0,0.,4.8,0.,4.8
1980-11-14 12:00:47.670 ,7,0,,0,0.,4.8,0.,4.8,,0,0.,4.8,0.,4.8
1980-11-14 12:00:52.470 ,7,0,,0,0.,4.8,0.,4.8,,0,0.,4.8,0.,4.8
1980-11-14 12:00:57.270 ,7,0,,0,0.,4.8,0.,4.8,,0,0.,4.8,0.,4.8
1980-11-14 12:01:02.070 ,7,0,,0,0.,4.8,0.,4.8,,0,0.,4.8,0.,4.8
1980-11-14 12:01:06.870 ,7,0,,0,0.,4.8,0.,4.8,,0,0.,4.8,0.,4.8
1980-11-14 12:01:11.670 ,7,0,,0,0.,4.8,0.,4.8,,0,0.,4.8,0.,4.8
1980-11-14 12:01:16.470 ,7,0,,0,0.,4.8,0.,4.8,,0,0.,4.8,0.,4.8
1980-11-14 12:01:21.270 ,7,0,,0,0.,4.8,0.,4.8,,0,0.,4.8,0.,4.8
1980-11-14 12:01:26.070 ,6,0,,0,0.,4.8,0.,4.8,,0,0.,4.8,0.,4.8
1980-11-14 12:01:30.870 ,6,0,,0,0.,4.8,0.,4.8,,0,0.,4.8,0.,4.8
1980-11-14 12:01:35.670 ,6,0,,0,0.,4.8,0.,4.8,,0,0.,4.8,0.,4.8
1980-11-14 12:01:40.470 ,6,0,,0,0.,4.8,0.,4.8,,0,0.,4.8,0.,4.8
1980-11-14 12:01:45.270 ,6,0,,0,0.,4.8,0.,4.8,,0,0.,4.8,0.,4.8
1980-11-14 12:01:50.070 ,6,0,,0,0.,4.8,0.,4.8,,0,0.,4.8,0.,4.8
1980-11-14 12:01:54.870 ,6,0,,0,0.,4.8,0.,4.8,,0,0.,4.8,0.,4.8
1980-11-14 12:01:59.670 ,6,0,,0,0.,4.8,0.,4.8,,0,0.,4.8,0.,4.8
1980-11-14 12:02:04.470 ,6,0,,0,0.,4.8,0.,4.8,,0,0.,4.8,0.,4.8
1980-11-14 12:02:09.270 ,6,0,,0,0.,4.8,0.,4.8,,0,0.,4.8,0.,4.8
1980-11-14 12:02:14.070 ,5,0,,0,0.,4.8,0.,4.8,,0,0.,4.8,0.,4.8
1980-11-14 12:02:18.870 ,5,0,,0,0.,4.8,0.,4.8,,0,0.,4.8,0.,4.8
1980-11-14 12:02:23.670 ,5,0,,0,0.,4.8,0.,4.8,,0,0.,4.8,0.,4.8
1980-11-14 12:02:28.470 ,5,0,,0,0.,4.8,0.,4.8,,0,0.,4.8,0.,4.8
1980-11-14 12:02:33.270 ,5,0,,0,0.,4.8,0.,4.8,,0,0.,4.8,0.,4.8
1980-11-14 12:02:38.070 ,5,0,,0,0.,4.8,0.,4.8,,0,0.,4.8,0.,4.8
1980-11-14 12:02:42.870 ,5,0,,0,0.,4.8,0.,4.8,,0,0.,4.8,0.,4.8
1980-11-14 12:02:47.670 ,5,0,,0,0.,4.8,0.,4.8,,0,0.,4.8,0.,4.8
1980-11-14 12:02:52.470 ,5,0,,0,0.,4.8,0.,4.8,,0,0.,4.8,0.,4.8
1980-11-14 12:02:57.270 ,5,0,,0,0.,4.8,0.,4.8,,0,0.,4.8,0.,4.8
1980-11-14 12:03:02.070 ,4,0,,0,0.,4.8,0.,4.8,,0,0.,4.8,0.,4.8
1980-11-14 12:03:06.870 ,4,0,,0,0.,4.8,0.,4.8,,0,1.,4.8,0.,4.8
1980-11-14 12:03:11.670 ,4,0,,0,0.,4.8,0.,4.8,,0,0.,4.8,0.,4.8
1980-11-14 12:03:16.470 ,4,0,,0,0.,4.8,0.,4.8,,0,0.,4.8,0.,4.8
1980-11-14 12:03:21.270 ,4,0,,0,0.,4.8,0.,4.8,,0,0.,4.8,0.,4.8
1980-11-14 12:03:26.070 ,4,0,,0,0.,4.8,0.,4.8,,0,0.,4.8,0.,4.8
1980-11-14 12:03:30.870 ,4,0,,0,0.,4.8,0.,4.8,,0,0.,4.8,0.,4.8
1980-11-14 12:03:35.670 ,4,0,,0,0.,4.8,0.,4.8,,0,0.,4.8,0.,4.8
1980-11-14 12:03:40.470 ,4,0,,0,0.,4.8,0.,4.8,,0,0.,4.8,0.,4.8
1980-11-14 12:03:45.270 ,4,0,,0,0.,4.8,0.,4.8,,0,0.,4.8,0.,4.8
1980-11-14 12:03:50.070 ,3,0,,0,0.,4.8,0.,4.8,,0,0.,4.8,0.,4.8
1980-11-14 12:03:54.870 ,3,0,,0,0.,4.8,0.,4.8,,0,0.,4.8,0.,4.8
1980-11-14 12:03:59.670 ,3,0,,0,0.,4.8,0.,4.8,,0,0.,4.8,0.,4.8
1980-11-14 12:04:04.470 ,3,0,,0,0.,4.8,0.,4.8,,0,0.,4.8,0.,4.8
1980-11-14 12:04:09.270 ,3,0,,0,0.,4.8,1.,4.8,,0,0.,4.8,0.,4.8
1980-11-14 12:04:14.070 ,3,0,,0,0.,4.8,0.,4.8,,0,0.,4.8,0.,4.8
1980-11-14 12:04:18.870 ,3,0,,0,0.,4.8,0.,4.8,,0,0.,4.8,0.,4.8
1980-11-14 12:04:23.670 ,3,0,,0,0.,4.8,0.,4.8,,0,0.,4.8,0.,4.8
1980-11-14 12:04:28.470 ,3,0,,0,0.,4.8,0.,4.8,,0,0.,4.8,0.,4.8
1980-11-14 12:04:33.270 ,3,0,,0,0.,4.8,0.,4.8,,0,0.,4.8,0.,4.8
1980-11-14 12:04:38.070 ,2,0,,0,0.,4.8,0.,4.8,,0,0.,4.8,0.,4.8
1980-11-14 12:04:42.870 ,2,0,,0,0.,4.8,0.,4.8,,0,0.,4.8,0.,4.8
1980-11-14 12:04:47.670 ,2,0,,0,0.,4.8,0.,4.8,,0,0.,4.8,0.,4.8
1980-11-14 12:04:52.470 ,2,0,,0,0.,4.8,0.,4.8,,0,0.,4.8,0.,4.8
1980-11-14 12:04:57.270 ,2,0,,0,0.,4.8,0.,4.8,,0,0.,4.8,0.,4.8
1980-11-14 12:05:02.070 ,2,0,,0,0.,4.8,0.,4.8,,0,0.,4.8,0.,4.8
1980-11-14 12:05:06.870 ,2,0,,0,0.,4.8,0.,4.8,,0,0.,4.8,0.,4.8
1980-11-14 12:05:11.670 ,2,0,,0,0.,4.8,0.,4.8,,0,0.,4.8,0.,4.8
1980-11-14 12:05:16.470 ,2,0,,0,0.,4.8,0.,4.8,,0,0.,4.8,0.,4.8
1980-11-14 12:05:21.270 ,2,0,,0,0.,4.8,0.,4.8,,0,0.,4.8,0.,4.8
1980-11-14 12:05:26.070 ,1,0,,0,0.,4.8,0.,4.8,,0,0.,4.8,0.,4.8
1980-11-14 12:05:30.870 ,1,0,,0,0.,4.8,0.,4.8,,0,0.,4.8,0.,4.8
1980-11-14 12:05:35.670 ,1,0,,0,0.,4.8,0.,4.8,,0,0.,4.8,0.,4.8
1980-11-14 12:05:40.470 ,1,0,,0,0.,4.8,0.,4.8,,0,0.,4.8,0.,4.8
1980-11-14 12:05:45.270 ,1,0,,0,0.,4.8,0.,4.8,,0,0.,4.8,0.,4.8
1980-11-14 12:05:50.070 ,1,0,,0,0.,4.8,0.,4.8,,0,0.,4.8,0.,4.8
1980-11-14 12:05:54.870 ,1,0,,0,0.,4.8,0.,4.8,,0,0.,4.8,0.,4.8
1980-11-14 12:05:59.670 ,1,0,,0,0.,4.8,0.,4.8,,0,0.,4.8,0.,4.8
1980-11-14 12:06:04.470 ,1,0,,0,0.,4.8,0.,4.8,,0,1.,4.8,0.,4.8
1980-11-14 12:06:09.270 ,1,0,,0,0.,4.8,0.,4.8,,0,0.,4.8,0.,4.8
1980-11-14 12:06:14.070 ,0,0,,0,0.,4.8,0.,4.8,,0,0.,4.8,0.,4.8
1980-11-14 12:06:18.870 ,0,0,,0,0.,4.8,0.,4.8,,0,0.,4.8,0.,4.8
1980-11-14 12:06:23.670 ,0,0,,0,0.,4.8,0.,4.8,,0,0.,4.8,0.,4.8
1980-11-14 12:06:28.470 ,0,0,,0,0.,4.8,0.,4.8,,0,0.,4.8,0.,4.8
1980-11-14 12:06:33.270 ,0,0,,0,0.,4.8,0.,4.8,,0,0.,4.8,0.,4.8
1980-11-14 12:06:38.070 ,0,0,,0,0.,4.8,0.,4.8,,0,0.,4.8,0.,4.8
1980-11-14 12:06:42.870 ,0,0,,0,0.,4.8,0.,4.8,,0,0.,4.8,0.,4.8
1980-11-14 12:06:47.670 ,0,0,,0,0.,4.8,0.,4.8,,0,0.,4.8,0.,4.8
1980-11-14 12:06:52.470 ,0,0,,0,0.,4.8,0.,4.8,,0,0.,4.8,0.,4.8
1980-11-14 12:06:57.270 ,0,0,,0,0.,4.8,0.,4.8,,0,0.,4.8,0.,4.8
1980-11-14 12:07:02.070 ,0,0,,0,0.,4.8,0.,4.8,,0,0.,4.8,0.,4.8
1980-11-14 12:07:06.870 ,0,0,,0,0.,4.8,0.,4.8,,0,0.,4.8,0.,4.8
1980-11-14 12:07:11.670 ,0,0,,0,0.,4.8,0.,4.8,,0,0.,4.8,0.,4.8
1980-11-14 12:07:16.470 ,0,0,,0,0.,4.8,0.,4.8,,0,0.,4.8,0.,4.8
1980-11-14 12:07:21.270 ,0,0,,0,0.,4.8,0.,4.8,,0,0.,4.8,0.,4.8
1980-11-14 12:07:26.070 ,0,0,,0,0.,4.8,0.,4.8,,0,0.,4.8,0.,4.8
1980-11-14 12:07:30.870 ,0,0,,0,0.,4.8,0.,4.8,,0,0.,4.8,0.,4.8
1980-11-14 12:07:35.670 ,0,0,,0,0.,4.8,0.,4.8,,0,0.,4.8,0.,4.8
1980-11-14 12:07:40.470 ,0,0,,0,0.,4.8,0.,4.8,,0,0.,4.8,0.,4.8
1980-11-14 12:07:45.270 ,0,0,,0,0.,4.8,0.,4.8,,0,0.,4.8,0.,4.8
1980-11-14 12:07:50.070 ,1,0,,0,0.,4.8,0.,4.8,,0,0.,4.8,0.,4.8
1980-11-14 12:07:54.870 ,1,0,,0,0.,4.8,0.,4.8,,0,0.,4.8,0.,4.8
1980-11-14 12:07:59.670 ,1,0,,0,0.,4.8,0.,4.8,,0,0.,4.8,0.,4.8
1980-11-14 12:08:04.470 ,1,0,,0,0.,4.8,0.,4.8,,0,0.,4.8,0.,4.8
1980-11-14 12:08:09.270 ,1,0,,0,0.,4.8,0.,4.8,,0,0.,4.8,0.,4.8
1980-11-14 12:08:14.070 ,1,0,,0,0.,4.8,0.,4.8,,0,0.,4.8,0.,4.8
1980-11-14 12:08:18.870 ,1,0,,0,0.,4.8,0.,4.8,,0,0.,4.8,0.,4.8
1980-11-14 12:08:23.670 ,1,0,,0,0.,4.8,0.,4.8,,0,0.,4.8,0.,4.8
1980-11-14 12:08:28.470 ,1,0,,0,0.,4.8,0.,4.8,,0,0.,4.8,0.,4.8
1980-11-14 12:08:33.270 ,1,0,,0,0.,4.8,0.,4.8,,0,0.,4.8,0.,4.8
1980-11-14 12:08:38.070 ,2,0,,0,0.,4.8,0.,4.8,,0,0.,4.8,0.,4.8
1980-11-14 12:08:42.870 ,2,0,,0,0.,4.8,0.,4.8,,0,0.,4.8,0.,4.8
1980-11-14 12:08:47.670 ,2,0,,0,0.,4.8,0.,4.8,,0,0.,4.8,0.,4.8
1980-11-14 12:08:52.470 ,2,0,,0,0.,4.8,0.,4.8,,0,0.,4.8,0.,4.8
1980-11-14 12:08:57.270 ,2,0,,0,0.,4.8,0.,4.8,,0,0.,4.8,0.,4.8
1980-11-14 12:09:02.070 ,2,0,,0,0.,4.8,0.,4.8,,0,0.,4.8,0.,4.8
1980-11-14 12:09:06.870 ,2,0,,0,0.,4.8,0.,4.8,,0,0.,4.8,0.,4.8
1980-11-14 12:09:11.670 ,2,0,,0,0.,4.8,0.,4.8,,0,0.,4.8,0.,4.8
1980-11-14 12:09:16.470 ,2,0,,0,0.,4.8,0.,4.8,,0,0.,4.8,0.,4.8
1980-11-14 12:09:21.270 ,2,0,,0,0.,4.8,1.,4.8,,0,0.,4.8,0.,4.8
1980-11-14 12:09:26.070 ,3,0,,0,0.,4.8,0.,4.8,,0,0.,4.8,0.,4.8
1980-11-14 12:09:30.870 ,3,0,,0,0.,4.8,0.,4.8,,0,0.,4.8,0.,4.8
1980-11-14 12:09:35.670 ,3,0,,0,0.,4.8,1.,4.8,,0,0.,4.8,0.,4.8
1980-11-14 12:09:40.470 ,3,0,,0,0.,4.8,0.,4.8,,0,1.,4.8,0.,4.8
1980-11-14 12:09:45.270 ,3,0,,0,0.,4.8,0.,4.8,,0,0.,4.8,0.,4.8
1980-11-14 12:09:50.070 ,3,0,,0,0.,4.8,0.,4.8,,0,0.,4.8,0.,4.8
1980-11-14 12:09:54.870 ,3,0,,0,0.,4.8,0.,4.8,,0,0.,4.8,0.,4.8
1980-11-14 12:09:59.670 ,3,0,,0,0.,4.8,0.,4.8,,0,0.,4.8,0.,4.8
1980-11-14 12:10:04.470 ,3,0,,0,0.,4.8,0.,4.8,,0,0.,4.8,0.,4.8
1980-11-14 12:10:09.270 ,3,0,,0,0.,4.8,0.,4.8,,0,0.,4.8,0.,4.8
1980-11-14 12:10:14.070 ,4,0,,0,0.,4.8,0.,4.8,,0,0.,4.8,0.,4.8
1980-11-14 12:10:18.870 ,4,0,,0,0.,4.8,0.,4.8,,0,0.,4.8,0.,4.8
1980-11-14 12:10:23.670 ,4,0,,0,0.,4.8,0.,4.8,,0,0.,4.8,0.,4.8
1980-11-14 12:10:28.470 ,4,0,,0,0.,4.8,0.,4.8,,0,0.,4.8,0.,4.8
1980-11-14 12:10:33.270 ,4,0,,0,0.,4.8,0.,4.8,,0,0.,4.8,0.,4.8
1980-11-14 12:10:38.070 ,4,0,,0,0.,4.8,0.,4.8,,0,0.,4.8,0.,4.8
1980-11-14 12:10:42.870 ,4,0,,0,0.,4.8,0.,4.8,,0,0.,4.8,0.,4.8
1980-11-14 12:10:47.670 ,4,0,,0,0.,4.8,0.,4.8,,0,0.,4.8,0.,4.8
1980-11-14 12:10:52.470 ,4,0,,0,0.,4.8,0.,4.8,,0,0.,4.8,0.,4.8
1980-11-14 12:10:57.270 ,4,0,,0,0.,4.8,0.,4.8,,0,0.,4.8,0.,4.8
1980-11-14 12:11:02.070 ,5,0,,0,0.,4.8,0.,4.8,,0,0.,4.8,0.,4.8
1980-11-14 12:11:06.870 ,5,0,,0,0.,4.8,0.,4.8,,0,0.,4.8,0.,4.8
1980-11-14 12:11:11.670 ,5,0,,0,0.,4.8,0.,4.8,,0,0.,4.8,0.,4.8
1980-11-14 12:11:16.470 ,5,0,,0,0.,4.8,0.,4.8,,0,0.,4.8,0.,4.8
1980-11-14 12:11:21.270 ,5,0,,0,0.,4.8,0.,4.8,,0,0.,4.8,0.,4.8
1980-11-14 12:11:26.070 ,5,0,,0,0.,4.8,0.,4.8,,0,0.,4.8,0.,4.8
1980-11-14 12:11:30.870 ,5,0,,0,0.,4.8,0.,4.8,,0,0.,4.8,0.,4.8
1980-11-14 12:11:35.670 ,5,0,,0,0.,4.8,0.,4.8,,0,0.,4.8,0.,4.8
1980-11-14 12:11:40.470 ,5,0,,0,0.,4.8,0.,4.8,,0,0.,4.8,0.,4.8
1980-11-14 12:11:45.270 ,5,0,,0,0.,4.8,0.,4.8,,0,0.,4.8,0.,4.8
1980-11-14 12:11:50.070 ,6,0,,0,0.,4.8,0.,4.8,,0,0.,4.8,0.,4.8
1980-11-14 12:11:54.870 ,6,0,,0,0.,4.8,0.,4.8,,0,0.,4.8,0.,4.8
1980-11-14 12:11:59.670 ,6,0,,0,0.,4.8,0.,4.8,,0,0.,4.8,0.,4.8
1980-11-14 12:12:04.470 ,6,0,,0,0.,4.8,0.,4.8,,0,0.,4.8,0.,4.8
1980-11-14 12:12:09.270 ,6,0,,0,0.,4.8,0.,4.8,,0,0.,4.8,0.,4.8
1980-11-14 12:12:14.070 ,6,0,,0,0.,4.8,0.,4.8,,0,0.,4.8,0.,4.8
1980-11-14 12:12:18.870 ,6,0,,0,0.,4.8,0.,4.8,,0,0.,4.8,0.,4.8
1980-11-14 12:12:23.670 ,6,0,,0,0.,4.8,0.,4.8,,0,0.,4.8,0.,4.8
1980-11-14 12:12:28.470 ,6,0,,0,0.,4.8,0.,4.8,,0,0.,4.8,0.,4.8
1980-11-14 12:12:33.270 ,6,0,,0,0.,4.8,0.,4.8,,0,0.,4.8,0.,4.8
1980-11-14 12:12:38.070 ,7,0,,0,0.,4.8,0.,4.8,,0,0.,4.8,0.,4.8
1980-11-14 12:12:42.870 ,7,0,,0,0.,4.8,0.,4.8,,0,0.,4.8,0.,4.8
1980-11-14 12:12:47.670 ,7,0,,0,0.,4.8,0.,4.8,,0,0.,4.8,0.,4.8
1980-11-14 12:12:52.470 ,7,0,,0,0.,4.8,0.,4.8,,0,0.,4.8,0.,4.8
1980-11-14 12:12:57.270 ,7,0,,0,0.,4.8,0.,4.8,,0,0.,4.8,0.,4.8
1980-11-14 12:13:02.070 ,7,0,,0,0.,4.8,0.,4.8,,0,1.,4.8,0.,4.8
1980-11-14 12:13:06.870 ,7,0,,0,0.,4.8,0.,4.8,,0,0.,4.8,0.,4.8
1980-11-14 12:13:11.670 ,7,0,,0,0.,4.8,0.,4.8,,0,0.,4.8,0.,4.8
1980-11-14 12:13:16.470 ,7,0,,0,0.,4.8,0.,4.8,,0,0.,4.8,0.,4.8
1980-11-14 12:13:21.270 ,7,0,,0,0.,4.8,0.,4.8,,0,0.,4.8,0.,4.8
1980-11-14 12:13:26.070 ,7,0,,0,0.,4.8,0.,4.8,,0,0.,4.8,0.,4.8
1980-11-14 12:13:30.870 ,7,0,,0,0.,4.8,0.,4.8,,0,0.,4.8,0.,4.8
1980-11-14 12:13:35.670 ,7,0,,0,0.,4.8,0.,4.8,,0,0.,4.8,0.,4.8
1980-11-14 12:13:40.470 ,7,0,,0,0.,4.8,0.,4.8,,0,0.,4.8,0.,4.8
1980-11-14 12:13:45.270 ,7,0,,0,0.,4.8,0.,4.8,,0,0.,4.8,0.,4.8
1980-11-14 12:13:50.070 ,7,0,,0,0.,4.8,0.,4.8,,0,0.,4.8,0.,4.8
1980-11-14 12:13:54.870 ,7,0,,0,0.,4.8,0.,4.8,,0,0.,4.8,0.,4.8
1980-11-14 12:13:59.670 ,7,0,,0,0.,4.8,0.,4.8,,0,0.,4.8,0.,4.8
1980-11-14 12:14:04.470 ,7,0,,0,0.,4.8,0.,4.8,,0,0.,4.8,0.,4.8
1980-11-14 12:14:09.270 ,7,0,,0,0.,4.8,0.,4.8,,0,0.,4.8,0.,4.8
1980-11-14 12:14:14.070 ,6,0,,0,0.,4.8,0.,4.8,,0,0.,4.8,0.,4.8
1980-11-14 12:14:18.870 ,6,0,,0,0.,4.8,0.,4.8,,0,0.,4.8,0.,4.8
1980-11-14 12:14:23.670 ,6,0,,0,0.,4.8,0.,4.8,,0,0.,4.8,0.,4.8
1980-11-14 12:14:28.470 ,6,0,,0,0.,4.8,0.,4.8,,0,0.,4.8,0.,4.8
1980-11-14 12:14:33.270 ,6,0,,0,0.,4.8,0.,4.8,,0,0.,4.8,0.,4.8
1980-11-14 12:14:38.070 ,6,0,,0,0.,4.8,0.,4.8,,0,0.,4.8,0.,4.8
1980-11-14 12:14:42.870 ,6,0,,0,0.,4.8,0.,4.8,,0,0.,4.8,0.,4.8
1980-11-14 12:14:47.670 ,6,0,,0,0.,4.8,0.,4.8,,0,0.,4.8,0.,4.8
1980-11-14 12:14:52.470 ,6,0,,0,0.,4.8,0.,4.8,,0,0.,4.8,0.,4.8
1980-11-14 12:14:57.270 ,6,0,,0,0.,4.8,0.,4.8,,0,0.,4.8,0.,4.8
1980-11-14 12:15:02.070 ,5,0,,0,0.,4.8,0.,4.8,,0,0.,4.8,0.,4.8
1980-11-14 12:15:06.870 ,5,0,,0,0.,4.8,0.,4.8,,0,0.,4.8,0.,4.8
1980-11-14 12:15:11.670 ,5,0,,0,0.,4.8,0.,4.8,,0,0.,4.8,0.,4.8
1980-11-14 12:15:16.470 ,5,0,,0,0.,4.8,0.,4.8,,0,0.,4.8,0.,4.8
1980-11-14 12:15:21.270 ,5,0,,0,0.,4.8,0.,4.8,,0,0.,4.8,0.,4.8
1980-11-14 12:15:26.070 ,5,0,,0,0.,4.8,0.,4.8,,0,0.,4.8,0.,4.8
1980-11-14 12:15:30.870 ,5,0,,0,0.,4.8,0.,4.8,,0,0.,4.8,0.,4.8
1980-11-14 12:15:35.670 ,5,0,,0,0.,4.8,0.,4.8,,0,0.,4.8,0.,4.8
1980-11-14 12:15:40.470 ,5,0,,0,0.,4.8,0.,4.8,,0,0.,4.8,0.,4.8
1980-11-14 12:15:45.270 ,5,0,,0,0.,4.8,0.,4.8,,0,0.,4.8,0.,4.8
1980-11-14 12:15:50.070 ,4,0,,0,0.,4.8,0.,4.8,,0,0.,4.8,0.,4.8
1980-11-14 12:15:54.870 ,4,0,,0,0.,4.8,0.,4.8,,0,0.,4.8,0.,4.8
1980-11-14 12:15:59.670 ,4,0,,0,0.,4.8,0.,4.8,,0,0.,4.8,0.,4.8
1980-11-14 12:16:04.470 ,4,0,,0,0.,4.8,0.,4.8,,0,0.,4.8,0.,4.8
1980-11-14 12:16:09.270 ,4,0,,0,0.,4.8,0.,4.8,,0,0.,4.8,0.,4.8
1980-11-14 12:16:14.070 ,4,0,,0,0.,4.8,0.,4.8,,0,0.,4.8,0.,4.8
1980-11-14 12:16:18.870 ,4,0,,0,0.,4.8,0.,4.8,,0,0.,4.8,0.,4.8
1980-11-14 12:16:23.670 ,4,0,,0,0.,4.8,0.,4.8,,0,0.,4.8,0.,4.8
1980-11-14 12:16:28.470 ,4,0,,0,0.,4.8,0.,4.8,,0,0.,4.8,0.,4.8
1980-11-14 12:16:33.270 ,4,0,,0,0.,4.8,0.,4.8,,0,0.,4.8,0.,4.8
1980-11-14 12:16:38.070 ,3,0,,0,0.,4.8,0.,4.8,,0,0.,4.8,0.,4.8
1980-11-14 12:16:42.870 ,3,0,,0,0.,4.8,0.,4.8,,0,0.,4.8,0.,4.8
1980-11-14 12:16:47.670 ,3,0,,0,0.,4.8,0.,4.8,,0,0.,4.8,0.,4.8
1980-11-14 12:16:52.470 ,3,0,,0,0.,4.8,0.,4.8,,0,0.,4.8,0.,4.8
1980-11-14 12:16:57.270 ,3,0,,0,0.,4.8,0.,4.8,,0,0.,4.8,0.,4.8
1980-11-14 12:17:02.070 ,3,0,,0,0.,4.8,0.,4.8,,0,0.,4.8,0.,4.8
1980-11-14 12:17:06.870 ,3,0,,0,0.,4.8,0.,4.8,,0,0.,4.8,0.,4.8
1980-11-14 12:17:11.670 ,3,0,,0,0.,4.8,0.,4.8,,0,0.,4.8,0.,4.8
1980-11-14 12:17:16.470 ,3,0,,0,0.,4.8,0.,4.8,,0,0.,4.8,0.,4.8
1980-11-14 12:17:21.270 ,3,0,,0,0.,4.8,0.,4.8,,0,0.,4.8,0.,4.8
1980-11-14 12:17:26.070 ,2,0,,0,0.,4.8,0.,4.8,,0,0.,4.8,0.,4.8
1980-11-14 12:17:30.870 ,2,0,,0,0.,4.8,0.,4.8,,0,0.,4.8,0.,4.8
1980-11-14 12:17:35.670 ,2,0,,0,0.,4.8,0.,4.8,,0,0.,4.8,0.,4.8
1980-11-14 12:17:40.470 ,2,0,,0,0.,4.8,0.,4.8,,0,0.,4.8,0.,4.8
1980-11-14 12:17:45.270 ,2,0,,0,0.,4.8,0.,4.8,,0,0.,4.8,0.,4.8
1980-11-14 12:17:50.070 ,2,0,,0,0.,4.8,0.,4.8,,0,0.,4.8,0.,4.8
1980-11-14 12:17:54.870 ,2,0,,0,0.,4.8,0.,4.8,,0,0.,4.8,0.,4.8
1980-11-14 12:17:59.670 ,2,0,,0,0.,4.8,0.,4.8,,0,0.,4.8,0.,4.8
1980-11-14 12:18:04.470 ,2,0,,0,0.,4.8,0.,4.8,,0,0.,4.8,0.,4.8
1980-11-14 12:18:09.270 ,2,0,,0,0.,4.8,0.,4.8,,0,0.,4.8,0.,4.8
1980-11-14 12:18:14.070 ,1,0,,0,0.,4.8,0.,4.8,,0,0.,4.8,0.,4.8
1980-11-14 12:18:18.870 ,1,0,,0,0.,4.8,0.,4.8,,0,0.,4.8,0.,4.8
1980-11-14 12:18:23.670 ,1,0,,0,0.,4.8,0.,4.8,,0,0.,4.8,0.,4.8
1980-11-14 12:18:28.470 ,1,0,,0,0.,4.8,0.,4.8,,0,0.,4.8,0.,4.8
1980-11-14 12:18:33.270 ,1,0,,0,0.,4.8,0.,4.8,,0,0.,4.8,0.,4.8
1980-11-14 12:18:38.070 ,1,0,,0,0.,4.8,0.,4.8,,0,0.,4.8,0.,4.8
1980-11-14 12:18:42.870 ,1,0,,0,0.,4.8,0.,4.8,,0,0.,4.8,0.,4.8
1980-11-14 12:18:47.670 ,1,0,,0,0.,4.8,0.,4.8,,0,0.,4.8,0.,4.8
1980-11-14 12:18:52.470 ,1,0,,0,0.,4.8,0.,4.8,,0,0.,4.8,0.,4.8
1980-11-14 12:18:57.270 ,1,0,,0,0.,4.8,0.,4.8,,0,0.,4.8,0.,4.8
1980-11-14 12:19:02.070 ,0,0,,0,0.,4.8,0.,4.8,,0,0.,4.8,0.,4.8
1980-11-14 12:19:06.870 ,0,0,,0,0.,4.8,0.,4.8,,0,0.,4.8,0.,4.8
1980-11-14 12:19:11.670 ,0,0,,0,0.,4.8,0.,4.8,,0,0.,4.8,0.,4.8
1980-11-14 12:19:16.470 ,0,0,,0,0.,4.8,0.,4.8,,0,0.,4.8,0.,4.8
1980-11-14 12:19:21.270 ,0,0,,0,0.,4.8,0.,4.8,,0,0.,4.8,0.,4.8
1980-11-14 12:19:26.070 ,0,0,,0,0.,4.8,0.,4.8,,0,0.,4.8,0.,4.8
1980-11-14 12:19:30.870 ,0,0,,0,0.,4.8,0.,4.8,,0,0.,4.8,0.,4.8
1980-11-14 12:19:35.670 ,0,0,,0,0.,4.8,0.,4.8,,0,0.,4.8,0.,4.8
1980-11-14 12:19:40.470 ,0,0,,0,0.,4.8,0.,4.8,,0,0.,4.8,0.,4.8
1980-11-14 12:19:45.270 ,0,0,,0,0.,4.8,0.,4.8,,0,0.,4.8,0.,4.8
1980-11-14 12:19:50.070 ,0,0,,0,0.,4.8,0.,4.8,,0,0.,4.8,0.,4.8
1980-11-14 12:19:54.870 ,0,0,,0,0.,4.8,0.,4.8,,0,0.,4.8,0.,4.8
1980-11-14 12:19:59.670 ,0,0,,0,0.,4.8,0.,4.8,,0,0.,4.8,0.,4.8
1980-11-14 12:20:04.470 ,0,0,,0,0.,4.8,0.,4.8,,0,0.,4.8,0.,4.8
1980-11-14 12:20:09.270 ,0,0,,0,0.,4.8,0.,4.8,,0,0.,4.8,0.,4.8
1980-11-14 12:20:14.070 ,0,0,,0,0.,4.8,0.,4.8,,0,0.,4.8,0.,4.8
1980-11-14 12:20:18.870 ,0,0,,0,0.,4.8,0.,4.8,,0,0.,4.8,0.,4.8
1980-11-14 12:20:23.670 ,0,0,,0,0.,4.8,0.,4.8,,0,0.,4.8,0.,4.8
1980-11-14 12:20:28.470 ,0,0,,0,0.,4.8,0.,4.8,,0,0.,4.8,0.,4.8
1980-11-14 12:20:33.270 ,0,0,,0,0.,4.8,0.,4.8,,0,0.,4.8,0.,4.8
1980-11-14 12:20:38.070 ,1,0,,0,0.,4.8,0.,4.8,,0,0.,4.8,0.,4.8
1980-11-14 12:20:42.870 ,1,0,,0,0.,4.8,0.,4.8,,0,0.,4.8,0.,4.8
1980-11-14 12:20:47.670 ,1,0,,0,0.,4.8,0.,4.8,,0,0.,4.8,0.,4.8
1980-11-14 12:20:52.470 ,1,0,,0,0.,4.8,0.,4.8,,0,0.,4.8,0.,4.8
1980-11-14 12:20:57.270 ,1,0,,0,0.,4.8,0.,4.8,,0,0.,4.8,0.,4.8
1980-11-14 12:21:02.070 ,1,0,,0,0.,4.8,0.,4.8,,0,0.,4.8,0.,4.8
1980-11-14 12:21:06.870 ,1,0,,0,0.,4.8,0.,4.8,,0,0.,4.8,0.,4.8
1980-11-14 12:21:11.670 ,1,0,,0,0.,4.8,0.,4.8,,0,0.,4.8,0.,4.8
1980-11-14 12:21:16.470 ,1,0,,0,0.,4.8,0.,4.8,,0,0.,4.8,0.,4.8
1980-11-14 12:21:21.270 ,1,0,,0,0.,4.8,0.,4.8,,0,0.,4.8,0.,4.8
1980-11-14 12:21:26.070 ,2,0,,0,0.,4.8,0.,4.8,,0,0.,4.8,0.,4.8
1980-11-14 12:21:30.870 ,2,0,,0,0.,4.8,0.,4.8,,0,0.,4.8,0.,4.8
1980-11-14 12:21:35.670 ,2,0,,0,0.,4.8,0.,4.8,,0,0.,4.8,0.,4.8
1980-11-14 12:21:40.470 ,2,0,,0,0.,4.8,0.,4.8,,0,0.,4.8,0.,4.8
1980-11-14 12:21:45.270 ,2,0,,0,0.,4.8,0.,4.8,,0,0.,4.8,0.,4.8
1980-11-14 12:21:50.070 ,2,0,,0,0.,4.8,0.,4.8,,0,0.,4.8,0.,4.8
1980-11-14 12:21:54.870 ,2,0,,0,0.,4.8,0.,4.8,,0,0.,4.8,0.,4.8
1980-11-14 12:21:59.670 ,2,0,,0,0.,4.8,0.,4.8,,0,0.,4.8,0.,4.8
1980-11-14 12:22:04.470 ,2,0,,0,0.,4.8,0.,4.8,,0,0.,4.8,0.,4.8
1980-11-14 12:22:09.270 ,2,0,,0,0.,4.8,0.,4.8,,0,0.,4.8,0.,4.8
1980-11-14 12:22:14.070 ,3,0,,0,0.,4.8,0.,4.8,,0,0.,4.8,0.,4.8
1980-11-14 12:22:18.870 ,3,0,,0,0.,4.8,0.,4.8,,0,0.,4.8,0.,4.8
1980-11-14 12:22:23.670 ,3,0,,0,0.,4.8,0.,4.8,,0,0.,4.8,0.,4.8
1980-11-14 12:22:28.470 ,3,0,,0,0.,4.8,0.,4.8,,0,0.,4.8,0.,4.8
1980-11-14 12:22:33.270 ,3,0,,0,0.,4.8,0.,4.8,,0,0.,4.8,0.,4.8
1980-11-14 12:22:38.070 ,3,0,,0,0.,4.8,0.,4.8,,0,0.,4.8,0.,4.8
1980-11-14 12:22:42.870 ,3,0,,0,0.,4.8,0.,4.8,,0,0.,4.8,0.,4.8
1980-11-14 12:22:47.670 ,3,0,,0,0.,4.8,0.,4.8,,0,0.,4.8,0.,4.8
1980-11-14 12:22:52.470 ,3,0,,0,0.,4.8,0.,4.8,,0,0.,4.8,0.,4.8
1980-11-14 12:22:57.270 ,3,0,,0,0.,4.8,0.,4.8,,0,0.,4.8,0.,4.8
1980-11-14 12:23:02.070 ,4,0,,0,1.,4.8,0.,4.8,,0,0.,4.8,0.,4.8
1980-11-14 12:23:06.870 ,4,0,,0,0.,4.8,0.,4.8,,0,0.,4.8,0.,4.8
1980-11-14 12:23:11.670 ,4,0,,0,0.,4.8,0.,4.8,,0,0.,4.8,0.,4.8
1980-11-14 12:23:16.470 ,4,0,,0,0.,4.8,0.,4.8,,0,0.,4.8,0.,4.8
1980-11-14 12:23:21.270 ,4,0,,0,0.,4.8,0.,4.8,,0,0.,4.8,0.,4.8
1980-11-14 12:23:26.070 ,4,0,,0,0.,4.8,0.,4.8,,0,0.,4.8,0.,4.8
1980-11-14 12:23:30.870 ,4,0,,0,0.,4.8,0.,4.8,,0,0.,4.8,0.,4.8
1980-11-14 12:23:35.670 ,4,0,,0,0.,4.8,0.,4.8,,0,0.,4.8,0.,4.8
1980-11-14 12:23:40.470 ,4,0,,0,0.,4.8,0.,4.8,,0,0.,4.8,0.,4.8
1980-11-14 12:23:45.270 ,4,0,,0,0.,4.8,0.,4.8,,0,0.,4.8,0.,4.8
1980-11-14 13:35:50.070 ,0,0,,0,0.,4.8,0.,4.8,,0,0.,4.8,0.,4.8
1980-11-14 13:35:54.870 ,0,0,,0,0.,4.8,0.,4.8,,0,0.,4.8,0.,4.8
1980-11-14 13:35:59.670 ,0,0,,0,0.,4.8,0.,4.8,,0,0.,4.8,0.,4.8
1980-11-14 13:36:04.470 ,0,0,,0,0.,4.8,0.,4.8,,0,0.,4.8,0.,4.8
1980-11-14 13:36:09.270 ,0,0,,0,0.,4.8,0.,4.8,,0,0.,4.8,0.,4.8
1980-11-14 13:36:14.070 ,0,0,,0,0.,4.8,0.,4.8,,0,0.,4.8,0.,4.8
1980-11-14 13:36:18.870 ,0,0,,0,0.,4.8,0.,4.8,,0,0.,4.8,0.,4.8
1980-11-14 13:36:23.670 ,0,0,,0,0.,4.8,1.,4.8,,0,0.,4.8,0.,4.8
1980-11-14 13:36:28.470 ,0,0,,0,0.,4.8,0.,4.8,,0,0.,4.8,0.,4.8
1980-11-14 13:36:33.270 ,0,0,,0,0.,4.8,0.,4.8,,0,0.,4.8,0.,4.8
1980-11-14 13:36:38.070 ,0,0,,0,0.,4.8,0.,4.8,,0,0.,4.8,0.,4.8
1980-11-14 13:36:42.870 ,0,0,,0,0.,4.8,0.,4.8,,0,0.,4.8,0.,4.8
1980-11-14 13:36:47.670 ,0,0,,0,0.,4.8,0.,4.8,,0,0.,4.8,0.,4.8
1980-11-14 13:36:52.470 ,0,0,,0,0.,4.8,0.,4.8,,0,0.,4.8,0.,4.8
1980-11-14 13:36:57.270 ,0,0,,0,0.,4.8,0.,4.8,,0,0.,4.8,0.,4.8
1980-11-14 13:37:02.070 ,0,0,,0,0.,4.8,0.,4.8,,0,0.,4.8,0.,4.8
1980-11-14 13:37:06.870 ,0,0,,0,0.,4.8,0.,4.8,,0,0.,4.8,0.,4.8
1980-11-14 13:37:11.670 ,0,0,,0,0.,4.8,0.,4.8,,0,0.,4.8,0.,4.8
1980-11-14 13:37:16.470 ,0,0,,0,0.,4.8,0.,4.8,,0,0.,4.8,0.,4.8
1980-11-14 13:37:21.270 ,0,0,,0,0.,4.8,0.,4.8,,0,0.,4.8,0.,4.8
1980-11-14 13:37:26.070 ,1,0,,0,0.,4.8,0.,4.8,,0,0.,4.8,0.,4.8
1980-11-14 13:37:30.870 ,1,0,,0,0.,4.8,0.,4.8,,0,0.,4.8,0.,4.8
1980-11-14 13:37:35.670 ,1,0,,0,0.,4.8,0.,4.8,,0,0.,4.8,0.,4.8
1980-11-14 13:37:40.470 ,1,0,,0,0.,4.8,0.,4.8,,0,0.,4.8,0.,4.8
1980-11-14 13:37:45.270 ,1,0,,0,0.,4.8,0.,4.8,,0,0.,4.8,0.,4.8
1980-11-14 13:37:50.070 ,1,0,,0,0.,4.8,0.,4.8,,0,0.,4.8,0.,4.8
1980-11-14 13:37:54.870 ,1,0,,0,0.,4.8,0.,4.8,,0,0.,4.8,0.,4.8
1980-11-14 13:37:59.670 ,1,0,,0,0.,4.8,0.,4.8,,0,0.,4.8,0.,4.8
1980-11-14 13:38:04.470 ,1,0,,0,0.,4.8,0.,4.8,,0,0.,4.8,0.,4.8
1980-11-14 13:38:09.270 ,1,0,,0,1.,4.8,0.,4.8,,0,0.,4.8,0.,4.8
1980-11-14 13:38:14.070 ,2,0,,0,0.,4.8,0.,4.8,,0,0.,4.8,0.,4.8
1980-11-14 13:38:18.870 ,2,0,,0,0.,4.8,0.,4.8,,0,0.,4.8,0.,4.8
1980-11-14 13:38:23.670 ,2,0,,0,0.,4.8,0.,4.8,,0,0.,4.8,0.,4.8
1980-11-14 13:38:28.470 ,2,0,,0,0.,4.8,0.,4.8,,0,0.,4.8,0.,4.8
1980-11-14 13:38:33.270 ,2,0,,0,0.,4.8,0.,4.8,,0,0.,4.8,0.,4.8
1980-11-14 13:38:38.070 ,2,0,,0,0.,4.8,0.,4.8,,0,0.,4.8,0.,4.8
1980-11-14 13:38:42.870 ,2,0,,0,0.,4.8,0.,4.8,,0,0.,4.8,0.,4.8
1980-11-14 13:38:47.670 ,2,0,,0,0.,4.8,0.,4.8,,0,0.,4.8,0.,4.8
1980-11-14 13:38:52.470 ,2,0,,0,0.,4.8,0.,4.8,,0,0.,4.8,0.,4.8
1980-11-14 13:38:57.270 ,2,0,,0,0.,4.8,0.,4.8,,0,0.,4.8,0.,4.8
1980-11-14 13:39:02.070 ,3,0,,0,0.,4.8,0.,4.8,,0,0.,4.8,0.,4.8
1980-11-14 13:39:06.870 ,3,0,,0,0.,4.8,0.,4.8,,0,0.,4.8,0.,4.8
1980-11-14 13:39:11.670 ,3,0,,0,0.,4.8,0.,4.8,,0,0.,4.8,0.,4.8
1980-11-14 13:39:16.470 ,3,0,,0,0.,4.8,0.,4.8,,0,0.,4.8,0.,4.8
1980-11-14 13:39:21.270 ,3,0,,0,1.,4.8,0.,4.8,,0,0.,4.8,0.,4.8
1980-11-14 13:39:26.070 ,3,0,,0,0.,4.8,0.,4.8,,0,0.,4.8,0.,4.8
1980-11-14 13:39:30.870 ,3,0,,0,0.,4.8,0.,4.8,,0,0.,4.8,0.,4.8
1980-11-14 13:39:35.670 ,3,0,,0,0.,4.8,0.,4.8,,0,0.,4.8,0.,4.8
1980-11-14 13:39:40.470 ,3,0,,0,0.,4.8,0.,4.8,,0,0.,4.8,0.,4.8
1980-11-14 13:39:45.270 ,3,0,,0,0.,4.8,0.,4.8,,0,0.,4.8,0.,4.8
1980-11-14 13:39:50.070 ,4,0,,0,0.,4.8,0.,4.8,,0,0.,4.8,0.,4.8
1980-11-14 13:39:54.870 ,4,0,,0,0.,4.8,0.,4.8,,0,0.,4.8,0.,4.8
1980-11-14 13:39:59.670 ,4,0,,0,0.,4.8,0.,4.8,,0,0.,4.8,0.,4.8
1980-11-14 13:40:04.470 ,4,0,,0,0.,4.8,0.,4.8,,0,0.,4.8,0.,4.8
1980-11-14 13:40:09.270 ,4,0,,0,0.,4.8,0.,4.8,,0,0.,4.8,0.,4.8
1980-11-14 13:40:14.070 ,4,0,,0,0.,4.8,0.,4.8,,0,0.,4.8,0.,4.8
1980-11-14 13:40:18.870 ,4,0,,0,0.,4.8,0.,4.8,,0,0.,4.8,0.,4.8
1980-11-14 13:40:23.670 ,4,0,,0,0.,4.8,0.,4.8,,0,0.,4.8,0.,4.8
1980-11-14 13:40:28.470 ,4,0,,0,0.,4.8,0.,4.8,,0,0.,4.8,0.,4.8
1980-11-14 13:40:33.270 ,4,0,,0,0.,4.8,0.,4.8,,0,0.,4.8,0.,4.8
1980-11-14 13:40:38.070 ,5,0,,0,0.,4.8,0.,4.8,,0,0.,4.8,0.,4.8
1980-11-14 13:40:42.870 ,5,0,,0,0.,4.8,0.,4.8,,0,0.,4.8,0.,4.8
1980-11-14 13:40:47.670 ,5,0,,0,0.,4.8,0.,4.8,,0,0.,4.8,0.,4.8
1980-11-14 13:40:52.470 ,5,0,,0,0.,4.8,0.,4.8,,0,0.,4.8,0.,4.8
1980-11-14 13:40:57.270 ,5,0,,0,0.,4.8,0.,4.8,,0,0.,4.8,0.,4.8
1980-11-14 13:41:02.070 ,5,0,,0,0.,4.8,0.,4.8,,0,0.,4.8,0.,4.8
1980-11-14 13:41:06.870 ,5,0,,0,0.,4.8,0.,4.8,,0,0.,4.8,0.,4.8
1980-11-14 13:41:11.670 ,5,0,,0,0.,4.8,0.,4.8,,0,0.,4.8,0.,4.8
1980-11-14 13:41:16.470 ,5,0,,0,0.,4.8,0.,4.8,,0,0.,4.8,0.,4.8
1980-11-14 13:41:21.270 ,5,0,,0,0.,4.8,0.,4.8,,0,0.,4.8,0.,4.8
1980-11-14 13:41:26.070 ,6,0,,0,0.,4.8,0.,4.8,,0,0.,4.8,0.,4.8
1980-11-14 13:41:30.870 ,6,0,,0,0.,4.8,0.,4.8,,0,0.,4.8,0.,4.8
1980-11-14 13:41:35.670 ,6,0,,0,0.,4.8,0.,4.8,,0,0.,4.8,0.,4.8
1980-11-14 13:41:40.470 ,6,0,,0,0.,4.8,0.,4.8,,0,0.,4.8,0.,4.8
1980-11-14 13:41:45.270 ,6,0,,0,0.,4.8,0.,4.8,,0,0.,4.8,0.,4.8
1980-11-14 13:41:50.070 ,6,0,,0,0.,4.8,0.,4.8,,0,0.,4.8,0.,4.8
1980-11-14 13:41:54.870 ,6,0,,0,0.,4.8,0.,4.8,,0,0.,4.8,0.,4.8
1980-11-14 13:41:59.670 ,6,0,,0,0.,4.8,0.,4.8,,0,0.,4.8,0.,4.8